Wink, TX

7:46 PM CST on February 23, 2017 (GMT -0600)
Winkler County

Weather History for KINK - December, 2011

Change the Weather History Date:

Sunday, December 25, 2011

  Actual Average Record
Temperature  
Mean Temperature 34 °F -  
Max Temperature 37 °F 55 °F 80 °F (1942)
Min Temperature 30 °F 26 °F 7 °F (1983)
Degree Days  
Heating Degree Days 32    
Moisture  
Dew Point 30 °F    
Average Humidity 89    
Maximum Humidity 100    
Minimum Humidity 75    
Precipitation  
Precipitation 0.00 in - - ()
Sea Level Pressure  
Sea Level Pressure 30.40 in    
Wind  
Wind Speed 6 mph (WNW)    
Max Wind Speed 8 mph    
Max Gust Speed -    
Visibility 10 miles    
Events      
Averages and records for this station are not official NWS values.
T = Trace of Precipitation, MM = Missing Value Source: NWS Daily Summary

Daily Weather History Graph

Daily Weather History Graph

Search for Another Location

Airport or City:

Trip Planner

Search our weather history database for the weather conditions in past years. The results will help you decide how hot, cold, wet, or windy it might be!

Date:

Astronomy

Dec. 25, 2011 Rise Set
Actual Time 7:50 AM CST 5:55 PM CST
Civil Twilight 7:23 AM CST 6:22 PM CST
Nautical Twilight 6:53 AM CST 6:52 PM CST
Astronomical Twilight 6:23 AM CST 7:22 PM CST
Moon 8:32 AM CST (12/25) 7:14 PM CST (12/25)
Length of Visible Light 10h 58m
Length of Day
10h 04m
New Moon, 1% of the Moon is Illuminated
Dec 25
New Moon
Jan 1
First Quarter
Jan 9
Full
Jan 16
Last Quarter
Jan 23
New

Hourly Weather History & Observations

Time (CST) Temp. Windchill Dew Point Humidity Pressure Visibility Wind Dir Wind Speed Gust Speed Precip Events Conditions
12:53 AM 30.0 °F 22.4 °F 28.9 °F 96% 30.42 in 10.0 mi WNW 8.1 mph - 0.00 in   Overcast
1:07 AM 30.2 °F 23.4 °F 28.4 °F 93% 30.39 in 10.0 mi WNW 6.9 mph - N/A   Overcast
1:53 AM 30.0 °F 25.2 °F 30.0 °F 100% 30.41 in 10.0 mi WNW 4.6 mph - N/A   Overcast
2:03 AM 30.2 °F 25.4 °F 30.2 °F 100% 30.38 in 10.0 mi West 4.6 mph - N/A   Overcast
3:53 AM 30.9 °F 26.2 °F 30.0 °F 96% 30.41 in 10.0 mi WNW 4.6 mph - N/A   Overcast
4:03 AM 30.2 °F 25.4 °F 30.2 °F 100% 30.38 in 10.0 mi WNW 4.6 mph - N/A   Overcast
4:53 AM 30.0 °F 25.2 °F 30.0 °F 100% 30.40 in 9.0 mi NW 4.6 mph - N/A   Overcast
6:53 AM 30.0 °F 24.1 °F 28.0 °F 92% 30.42 in 10.0 mi WNW 5.8 mph - N/A   Overcast
7:00 AM 30.2 °F 24.3 °F 28.4 °F 93% 30.39 in 10.0 mi WNW 5.8 mph - N/A   Overcast
7:26 AM 30.2 °F 26.7 °F 30.2 °F 100% 30.40 in 10.0 mi WNW 3.5 mph - N/A   Overcast
7:48 AM 30.2 °F 25.4 °F 30.2 °F 100% 30.41 in 10.0 mi WNW 4.6 mph - N/A   Overcast
7:53 AM 30.9 °F 26.2 °F 30.0 °F 96% 30.44 in 10.0 mi West 4.6 mph - N/A   Overcast
8:14 AM 30.2 °F 25.4 °F 28.4 °F 93% 30.41 in 10.0 mi West 4.6 mph - N/A   Overcast
8:53 AM 30.9 °F 27.5 °F 30.0 °F 96% 30.46 in 10.0 mi NW 3.5 mph - N/A   Overcast
9:53 AM 32.0 °F 26.4 °F 30.0 °F 92% 30.48 in 10.0 mi NW 5.8 mph - N/A   Overcast
10:53 AM 34.0 °F - 30.9 °F 89% 30.48 in 10.0 mi Calm Calm - N/A   Overcast
12:53 PM 36.0 °F 32.1 °F 30.9 °F 82% 30.44 in 10.0 mi NW 4.6 mph - N/A   Overcast
1:27 PM 37.4 °F 31.4 °F 30.2 °F 75% 30.41 in 10.0 mi NW 8.1 mph - N/A   Overcast
1:38 PM 35.6 °F 29.9 °F 30.2 °F 81% 30.40 in 10.0 mi NNW 6.9 mph - N/A   Overcast
1:53 PM 37.0 °F 31.0 °F 30.9 °F 79% 30.41 in 10.0 mi NW 8.1 mph - N/A   Overcast
2:49 PM 37.4 °F 31.4 °F 30.2 °F 75% 30.38 in 10.0 mi NNW 8.1 mph - N/A   Overcast
2:53 PM 37.0 °F 32.4 °F 30.9 °F 79% 30.40 in 10.0 mi NNW 5.8 mph - N/A   Overcast
3:53 PM 37.0 °F 32.4 °F 30.9 °F 79% 30.39 in 10.0 mi NW 5.8 mph - N/A   Overcast
4:53 PM 35.6 °F 30.7 °F 32.0 °F 87% 30.37 in 10.0 mi NNW 5.8 mph - N/A   Overcast
5:53 PM 36.0 °F 32.1 °F 32.0 °F 86% 30.38 in 10.0 mi NNW 4.6 mph - N/A   Overcast
6:53 PM 35.1 °F 30.1 °F 30.9 °F 85% 30.40 in 10.0 mi WNW 5.8 mph - N/A   Overcast
7:53 PM 35.6 °F 30.7 °F 30.2 °F 81% 30.38 in 10.0 mi WNW 5.8 mph - N/A   Overcast
8:26 PM 35.6 °F 30.7 °F 30.2 °F 81% 30.37 in 10.0 mi WNW 5.8 mph - N/A   Overcast
8:53 PM 35.1 °F 32.2 °F 30.9 °F 85% 30.39 in 10.0 mi NW 3.5 mph - N/A   Overcast
9:53 PM 33.8 °F 29.6 °F 30.2 °F 87% 30.36 in 10.0 mi WNW 4.6 mph - N/A   Overcast
10:53 PM 33.8 °F 30.8 °F 30.2 °F 87% 30.35 in 10.0 mi WSW 3.5 mph - N/A   Overcast
11:53 PM 32.0 °F 25.6 °F 30.9 °F 96% 30.35 in 10.0 mi West 6.9 mph - N/A   Mostly Cloudy